Danbury, CT

4:58 AM EST on February 06, 2016 (GMT -0500)
Danbury Municipal

Weather History for KDXR - December, 1999

Change the Weather History Date:

Wednesday, December 1, 1999

  Actual Average Record
Temperature  
Mean Temperature 24 °F -  
Max Temperature 28 °F 43 °F 66 °F (1991)
Min Temperature 19 °F 26 °F 8 °F (1976)
Degree Days  
Heating Degree Days 42    
Moisture  
Dew Point 8 °F    
Average Humidity 48    
Maximum Humidity 62    
Minimum Humidity 34    
Precipitation  
Precipitation 0.00 in - - ()
Sea Level Pressure  
Sea Level Pressure 30.34 in    
Wind  
Wind Speed 13 mph (North)    
Max Wind Speed 22 mph    
Max Gust Speed 28 mph    
Visibility 10 miles    
Events      
Averages and records for this station are not official NWS values.
T = Trace of Precipitation, MM = Missing Value Source: NWS Daily Summary

Daily Weather History Graph

Daily Weather History Graph

Search for Another Location

Airport or City:

Trip Planner

Search our weather history database for the weather conditions in past years. The results will help you decide how hot, cold, wet, or windy it might be!

Date:

Astronomy

Dec. 01, 1999 Rise Set
Actual Time 7:00 AM EST 4:25 PM EST
Civil Twilight 6:29 AM EST 4:56 PM EST
Nautical Twilight 5:55 AM EST 5:30 PM EST
Astronomical Twilight 5:21 AM EST 6:03 PM EST
Moon 12:37 AM EST (12/1) 1:34 PM EST (12/1)
Length of Visible Light 10h 26m
Length of Day
9h 25m
Waning Crescent, 32% of the Moon is Illuminated
Dec 1
Waning Crescent
Dec 7
New
Dec 15
First Quarter
Dec 22
Full
Dec 29
Last Quarter

Hourly Weather History & Observations

Time (EST) Temp. Windchill Dew Point Humidity Pressure Visibility Wind Dir Wind Speed Gust Speed Precip Events Conditions
12:53 AM 24.1 °F 13.1 °F 10.9 °F 57% 30.45 in 10.0 mi North 11.5 mph 20.7 mph N/A   Clear
1:53 AM 23.0 °F 11.1 °F 6.1 °F 48% 30.43 in 10.0 mi North 12.7 mph 20.7 mph N/A   Clear
2:53 AM 21.9 °F 9.8 °F 8.1 °F 55% 30.43 in 10.0 mi North 12.7 mph 23.0 mph N/A   Clear
3:53 AM 21.9 °F 11.0 °F 8.1 °F 55% 30.40 in 10.0 mi North 10.4 mph 23.0 mph N/A   Clear
4:53 AM 21.0 °F 8.1 °F 8.1 °F 57% 30.40 in 10.0 mi North 13.8 mph 21.9 mph N/A   Clear
5:53 AM 21.0 °F 7.1 °F 8.1 °F 57% 30.40 in 10.0 mi North 16.1 mph 24.2 mph N/A   Clear
6:53 AM 19.9 °F 8.6 °F 9.0 °F 62% 30.40 in 10.0 mi NNW 10.4 mph - N/A   Clear
7:53 AM 21.0 °F 10.6 °F 9.0 °F 60% 30.38 in 10.0 mi NNW 9.2 mph 17.3 mph N/A   Clear
8:53 AM 23.0 °F 10.1 °F 8.1 °F 53% 30.36 in 10.0 mi North 15.0 mph 23.0 mph N/A   Clear
9:53 AM 24.1 °F 12.0 °F 8.1 °F 51% 30.35 in 10.0 mi North 13.8 mph 23.0 mph N/A   Clear
10:53 AM 26.1 °F 13.1 °F 9.0 °F 49% 30.32 in 10.0 mi North 17.3 mph 27.6 mph N/A   Clear
11:53 AM 28.0 °F 15.3 °F 9.0 °F 45% 30.31 in 10.0 mi North 18.4 mph 27.6 mph N/A   Clear
12:53 PM 28.9 °F 15.4 °F 9.0 °F 43% 30.30 in 10.0 mi North 21.9 mph 26.5 mph N/A   Unknown
1:53 PM - - - N/A% 30.27 in 10.0 mi North 18.4 mph 24.2 mph N/A   Clear
2:53 PM 28.9 °F 17.7 °F 3.9 °F 35% 30.30 in 10.0 mi NNW 15.0 mph 23.0 mph N/A   Clear
3:53 PM 28.0 °F 16.1 °F 6.1 °F 39% 30.30 in 10.0 mi NNW 16.1 mph 20.7 mph N/A   Clear
4:53 PM 28.0 °F 18.6 °F 3.0 °F 34% 30.30 in 10.0 mi NNW 10.4 mph 25.3 mph N/A   Clear
5:53 PM 27.0 °F 16.7 °F 5.0 °F 39% 30.30 in 10.0 mi NNW 11.5 mph - N/A   Clear
6:53 PM 27.0 °F 17.3 °F 7.0 °F 43% 30.30 in 10.0 mi NNW 10.4 mph - N/A   Clear
7:53 PM 27.0 °F 16.7 °F 7.0 °F 43% 30.29 in 10.0 mi NNW 11.5 mph 20.7 mph N/A   Clear
8:53 PM 26.1 °F 15.6 °F 8.1 °F 47% 30.28 in 10.0 mi North 11.5 mph 18.4 mph N/A   Clear
9:53 PM 26.1 °F 18.4 °F 8.1 °F 47% 30.28 in 10.0 mi Variable 6.9 mph - N/A   Clear
10:53 PM 25.0 °F 19.3 °F 8.1 °F 49% 30.28 in 10.0 mi Variable 4.6 mph - N/A   Clear
11:53 PM 26.1 °F 15.6 °F 8.1 °F 47% 30.27 in 10.0 mi North 11.5 mph 17.3 mph N/A   Clear